Weather in Bulanikha

Russia / Altai Krai     52°48′06″N   84°55′50″E
temp.,
°C
wind,
m/s
gust,
m/s
humid.,
%
clouds,
%
prec.,
mm/h
press.,
hPa
HPBL,
m
19 september, sun
sun1901:00+7wnw33733 0.0 101239
04:00+6sw1165100 0.0 101310
07:00+5s226916 0.0 101317
10:00+11s3552100 0.0 1011426
13:00+16ssw473480 0.0 10081343
16:00+19ssw5102421 0.0 10052300
19:00+16w4834100 0.0 1005390
22:00+13w6941100 0.0 1006535
20 september, mon
mon2001:00+10w585485 0.0 1009749
04:00+6wsw5107016 0.0 1011386
07:00+5wsw5137159 0.0 1014520
10:00+8wsw812516 0.0 10161590
13:00+11wsw91236100 0.1 10152444
16:00+11wsw81233100 0.0 10152267
19:00+10wsw5103877 0.0 10141142
22:00+6w495597 0.0 1015260
21 september, tue
tue2101:00+6sw5106499 0.0 10151001
04:00+4wsw51063100 0.0 1016812
07:00+3wsw51068100 0.0 1017722
10:00+5w7106471 0.1 10181280
13:00+6w81051100 0.2 10181732
16:00+7w7947100 0.0 10191678
19:00+6wnw5866100 0.1 1020977
22:00+2w238388 0.0 102236
22 september, wed
wed2201:00+2w3688100 0.0 1022160
04:00+3wsw3788100 0.1 1022564
07:00+1sw378595 0.1 1023244
10:00+2wsw4691100 0.1 1024511
13:00+7wsw4654100 0.3 10231578
16:00+7w4550100 0.1 10221420
19:00+5wnw225998 0.2 102221
22:00+3n116997 0.0 102210
23 september, thu
thu2301:00+2wsw0174100 0.0 102110
04:00+2wnw2272100 0.0 102143
07:00+2wsw1381100 0.0 1021168
10:00+4wsw4663100 0.0 1022931
13:00+5w5757100 0.1 10221365
16:00+7w5648100 0.1 10221513
19:00+5w2255100 0.1 102325
22:00+2nw3487100 0.0 102493